[[{"header":{"parameterUnit":"m.s-1","parameterCategory":1,"la1":30.2991,"la2":30.254,"lo1":-89.0895,"lo2":-89.0444,"dy":0.0017,"dx":0.0017,"nx":28,"ny":28,"refTime":"2025-03-30T03:00:00:Z","depth":0,"parameterNumber":2,"parameterNumberName":"U-component_of_WINDS"},"data":[0,0,0,0,0,0,0,0,0,0,0,0,0,0,0,0,0,0,0,0,0,0,0,0,0,0,0,0,0,0,0,0,0,0,0,0,0,0,0,0,0,0,0,0,0,0,0,0,0,0,0,0,0,0,0,0,0,0,1.032,1.0319,0,1.0276,1.0276,1.0275,1.022,1.0219,1.0219,1.0218,1.0172,1.0172,1.0171,0,0,0,0,0,0,0,0,0,0,0,0,0,1.0354,1.0354,1.032,1.0319,1.0319,1.0276,1.0276,1.0275,1.022,1.0219,1.0218,1.0217,1.0172,1.0172,1.0171,0,0,0,0,0,0,0,0,0,0,0,0,0,1.0328,1.0354,1.032,1.0286,1.0283,1.0276,1.0276,1.0275,1.0221,1.0219,1.0218,1.0217,1.0172,1.0172,1.0171,1.0194,0,0,1.0169,1.0169,0,0,0,0,0,0,0,0,1.033,1.0327,1.0292,1.0289,1.0285,1.0252,1.0271,1.0248,1.0221,1.0244,1.0218,1.0216,1.02,1.0197,1.0192,1.0192,1.019,1.0169,1.0169,1.0169,1.0169,0,0,0,0,0,0,0,1.0331,1.0328,1.0302,1.0291,1.0287,1.0273,1.0268,1.0266,1.023,1.0242,1.0238,1.0234,1.0198,1.0192,1.019,1.0189,1.0169,1.0169,1.0169,1.0168,1.0204,1.0206,0,0,0,0,0,0,1.0338,1.033,1.0304,1.0301,1.0304,1.0273,1.0268,1.0264,1.023,1.0223,1.0235,1.0231,1.0194,1.0191,1.0188,1.0212,1.0169,1.0168,1.0168,1.0203,1.0205,1.0206,0,0,0,0,0,0,1.0339,1.0337,1.0306,1.0314,1.0309,1.0274,1.0271,1.0264,1.0258,1.0224,1.0217,1.0236,1.0193,1.0189,1.0193,1.0209,1.0168,1.0167,1.0201,1.0203,1.0205,1.026,0,0,0,0,0,0,1.0341,1.0337,1.0346,1.0315,1.0309,1.0311,1.0272,1.0264,1.0258,1.0253,1.0224,1.0218,1.0191,1.0194,1.0192,1.0208,1.0167,1.02,1.0202,1.0205,1.0256,1.0263,1.0269,0,0,0,0,0,1.0342,1.0363,1.0347,1.0344,1.0319,1.0313,1.0309,1.0279,1.0259,1.0267,1.0245,1.0219,1.0208,1.0195,1.0192,1.0208,1.0199,1.0202,1.0204,1.0253,1.0262,1.0269,0,0,0,0,0,0,1.0396,1.0358,1.034,1.0351,1.0336,1.0303,1.0313,1.0289,1.0278,1.0274,1.0236,1.023,1.0238,1.0223,1.0209,1.0228,1.0199,1.0202,1.0237,1.0245,1.0251,1.0255,1.0166,0,0,0,0,0,1.041,1.0408,1.0374,1.0388,1.0381,1.0348,1.0344,1.0322,1.0304,1.0297,1.0275,1.0259,1.0251,1.0247,1.0239,1.0254,1.0246,1.0263,1.027,1.0275,1.0278,1.0284,1.0291,1.0216,1.0216,1.0216,0,0,1.0437,1.0416,1.0417,1.0398,1.0383,1.0382,1.0343,1.0343,1.0341,1.0297,1.0299,1.0282,1.0261,1.027,1.0273,1.0258,1.0297,1.0279,1.0284,1.0283,1.0288,1.0295,1.0301,1.0218,1.0217,1.0217,0,0,1.0487,1.0471,1.048,1.0466,1.0444,1.0422,1.0424,1.0395,1.0383,1.0384,1.0351,1.0347,1.0336,1.0322,1.0313,1.0357,1.0331,1.0355,1.0389,1.0395,1.0401,1.0406,1.0421,1.0427,1.0358,1.0358,1.0358,0,1.0524,1.052,1.0488,1.0489,1.0482,1.0442,1.045,1.0438,1.0415,1.041,1.0393,1.0378,1.036,1.0365,1.0376,1.037,1.0371,1.0358,1.0403,1.0408,1.0412,1.0426,1.0431,1.0361,1.036,1.036,1.036,0,1.0566,1.0564,1.0574,1.0553,1.0546,1.0552,1.0519,1.0516,1.0495,1.0474,1.0476,1.0454,1.044,1.0439,1.0418,1.0441,1.0432,1.041,1.0381,1.0423,1.0435,1.044,1.0365,1.0364,1.0363,1.0362,0,0,1.0649,1.0609,1.0613,1.0603,1.0575,1.0573,1.0576,1.0562,1.056,1.0545,1.0546,1.0537,1.0516,1.0506,1.0483,1.0489,1.0524,1.0465,1.0464,1.0477,1.0547,1.0564,1.057,1.0507,1.0508,1.0508,1.0548,0,1.0693,1.0697,1.0667,1.0678,1.0676,1.0637,1.064,1.0623,1.0604,1.0599,1.0577,1.0571,1.0544,1.0538,1.0541,1.0519,1.0537,1.0515,1.0507,1.0507,1.0514,1.0577,1.0595,1.0634,1.0553,1.0554,1.0554,0,1.0745,1.0733,1.0744,1.0715,1.0713,1.0716,1.0701,1.0697,1.0676,1.0662,1.0651,1.0624,1.0624,1.0597,1.0596,1.0582,1.0576,1.0565,1.0565,1.0563,1.0533,1.0576,1.0645,1.0651,1.0562,1.0561,1.056,0,1.0803,1.079,1.0795,1.0787,1.0754,1.0757,1.0743,1.0721,1.0715,1.0702,1.0697,1.0684,1.0676,1.0666,1.0636,1.0619,1.0639,1.0609,1.0626,1.0627,1.0632,1.0632,1.0701,1.0629,1.0629,1.0629,1.0629,0,1.0855,1.0864,1.082,1.0823,1.0831,1.0797,1.0806,1.0788,1.0769,1.0767,1.0733,1.0732,1.0693,1.0687,1.0664,1.0666,1.0663,1.0651,1.0645,1.0654,1.0656,1.065,1.0647,1.0631,1.063,1.063,1.063,0,1.0922,1.0894,1.0896,1.0865,1.0857,1.0864,1.0837,1.0838,1.0817,1.0815,1.0812,1.0779,1.077,1.0739,1.0723,1.0707,1.0717,1.0705,1.0724,1.072,1.0739,1.0738,1.0807,1.0814,1.0738,1.0739,1.074,0,1.0957,1.0962,1.0932,1.0928,1.0916,1.0911,1.0905,1.0871,1.0865,1.0842,1.0846,1.0835,1.0824,1.0812,1.0785,1.0773,1.076,1.0785,1.0758,1.0767,1.0759,1.0759,1.0759,1.0791,1.0792,1.0793,1.0793,0,1.1022,1.1007,1.0999,1.0986,1.0979,1.0967,1.0953,1.0952,1.0914,1.091,1.0901,1.0893,1.0876,1.0865,1.0848,1.0833,1.0807,1.0802,1.0805,1.0815,1.0825,1.0819,1.074,1.0801,1.08,1.0799,1.0799,1.0799,1.1073,1.1076,1.1055,1.1047,1.1033,1.102,1.102,1.0998,1.099,1.0975,1.0955,1.0949,1.0927,1.0901,1.0888,1.0882,1.0868,1.0873,1.0874,1.0875,1.088,1.0827,1.0879,1.0878,1.0878,1.0878,1.0878,0,1.1136,1.112,1.1113,1.1095,1.1088,1.1065,1.1048,1.1044,1.1039,1.1021,1.1011,1.1001,1.099,1.0963,1.0949,1.0949,1.0936,1.0946,1.0946,1.0943,1.0894,1.0892,1.0957,1.0957,1.0957,1.0957,1.0957,1.0956,1.1167,1.1171,1.1154,1.115,1.1134,1.1128,1.112,1.1108,1.1094,1.1084,1.1075,1.1057,1.1036,1.102,1.1008,1.1001,1.0997,1.1011,1.0999,1.0954,1.0946,1.0939,1.0937,1.101,1.101,1.1048,1.1049,1.1049]},{"header":{"parameterUnit":"m.s-1","parameterCategory":1,"la1":30.2991,"la2":30.254,"lo1":-89.0895,"lo2":-89.0444,"dy":0.0017,"dx":0.0017,"nx":28,"ny":28,"refTime":"2025-03-30T03:00:00:Z","depth":0,"parameterNumber":3,"parameterNumberName":"V-component_of_WINDS"},"data":[0,0,0,0,0,0,0,0,0,0,0,0,0,0,0,0,0,0,0,0,0,0,0,0,0,0,0,0,0,0,0,0,0,0,0,0,0,0,0,0,0,0,0,0,0,0,0,0,0,0,0,0,0,0,0,0,0,0,4.7862,4.7862,0,4.7906,4.7906,4.7907,4.7896,4.7895,4.7894,4.7894,4.7935,4.7937,4.7939,0,0,0,0,0,0,0,0,0,0,0,0,0,4.7766,4.7768,4.7862,4.7862,4.7863,4.7906,4.7906,4.7907,4.7896,4.7895,4.7894,4.7893,4.7935,4.7937,4.7939,0,0,0,0,0,0,0,0,0,0,0,0,0,4.7808,4.7768,4.7862,4.7863,4.7863,4.7906,4.7906,4.7907,4.7896,4.7895,4.7894,4.7893,4.7934,4.7937,4.794,4.7983,0,0,4.7948,4.795,0,0,0,0,0,0,0,0,4.7806,4.7812,4.7862,4.7863,4.7863,4.7894,4.7888,4.7932,4.7897,4.7884,4.7894,4.7892,4.7922,4.7926,4.7937,4.7984,4.7986,4.7949,4.795,4.7951,4.7952,0,0,0,0,0,0,0,4.7803,4.781,4.7879,4.7863,4.7864,4.786,4.7865,4.7896,4.791,4.7885,4.7884,4.789,4.7923,4.7934,4.7938,4.7987,4.7948,4.7951,4.7953,4.7954,4.8073,4.8075,0,0,0,0,0,0,4.78,4.7808,4.7878,4.788,4.7831,4.7863,4.7868,4.7886,4.7909,4.7912,4.7891,4.7889,4.793,4.7935,4.7939,4.7993,4.7951,4.7954,4.7956,4.8072,4.8074,4.8075,0,0,0,0,0,0,4.7798,4.7806,4.7876,4.7844,4.7852,4.7866,4.7886,4.7887,4.7899,4.7914,4.7916,4.7901,4.7929,4.7935,4.7973,4.7994,4.7955,4.7958,4.807,4.8072,4.8074,4.8099,0,0,0,0,0,0,4.7795,4.7806,4.7823,4.7844,4.7854,4.7909,4.7887,4.7889,4.7904,4.7903,4.7924,4.7926,4.7929,4.7968,4.7975,4.7997,4.796,4.8068,4.8071,4.8074,4.8096,4.8102,4.8106,0,0,0,0,0,4.7792,4.7827,4.7824,4.7832,4.7876,4.791,4.7916,4.792,4.7906,4.7923,4.7933,4.7925,4.799,4.7972,4.798,4.8003,4.8067,4.807,4.8074,4.8094,4.8101,4.8106,0,0,0,0,0,0,4.7805,4.7829,4.7826,4.7869,4.7888,4.7908,4.793,4.7926,4.7948,4.7946,4.7948,4.7953,4.7991,4.8001,4.798,4.8047,4.8027,4.8032,4.804,4.8046,4.8051,4.8048,4.7963,0,0,0,0,0,4.7814,4.7841,4.786,4.7896,4.7906,4.7916,4.7931,4.7933,4.7952,4.7959,4.7971,4.7989,4.8014,4.803,4.8054,4.8097,4.8102,4.8117,4.8122,4.8126,4.8131,4.8156,4.8163,4.8086,4.8086,4.8086,0,0,4.7831,4.7847,4.7864,4.7899,4.7914,4.7941,4.7923,4.7952,4.7972,4.7963,4.8,4.801,4.803,4.8071,4.8089,4.808,4.8153,4.813,4.8133,4.8136,4.816,4.8168,4.8174,4.8088,4.8088,4.8087,0,0,4.7876,4.7891,4.7924,4.7939,4.7962,4.7969,4.7977,4.7998,4.8005,4.8042,4.8036,4.806,4.8102,4.8117,4.813,4.8183,4.8177,4.819,4.8217,4.8241,4.8247,4.8253,4.8273,4.828,4.8194,4.8194,4.8194,0,4.7894,4.7936,4.794,4.7971,4.7987,4.7982,4.8015,4.8029,4.8058,4.8069,4.8058,4.8112,4.8125,4.817,4.8183,4.8193,4.8203,4.8188,4.8246,4.8252,4.8257,4.8276,4.8284,4.8196,4.8196,4.8196,4.8195,0,4.7958,4.7987,4.801,4.8041,4.8059,4.8091,4.8099,4.8117,4.8117,4.8126,4.8164,4.8179,4.8207,4.8217,4.8216,4.8263,4.8256,4.8246,4.8226,4.8266,4.8284,4.8292,4.8198,4.8198,4.8197,4.8197,0,0,4.8013,4.8047,4.8055,4.807,4.8095,4.8117,4.8149,4.8177,4.8193,4.8213,4.824,4.8276,4.8267,4.8282,4.8283,4.8304,4.8347,4.8291,4.8292,4.8303,4.8401,4.841,4.8418,4.8343,4.8344,4.8345,4.84,0,4.8062,4.8119,4.8124,4.8175,4.8203,4.8198,4.8226,4.8244,4.8253,4.8277,4.8285,4.8312,4.8297,4.8306,4.8327,4.8337,4.8367,4.8333,4.8368,4.837,4.8365,4.8428,4.8437,4.8488,4.8407,4.8408,4.8409,0,4.8127,4.8151,4.8206,4.8229,4.824,4.8265,4.8292,4.8315,4.8336,4.834,4.8358,4.8357,4.8389,4.8367,4.8412,4.8389,4.8403,4.841,4.8412,4.8417,4.8393,4.8435,4.8503,4.8512,4.842,4.8419,4.8418,0,4.8164,4.821,4.8249,4.8261,4.8288,4.8306,4.8318,4.8338,4.8355,4.8378,4.8389,4.8415,4.8429,4.8449,4.8455,4.8438,4.85,4.8478,4.8505,4.8505,4.8519,4.8519,4.8593,4.8526,4.8526,4.8526,4.8526,0,4.8219,4.8253,4.8266,4.829,4.8328,4.8333,4.837,4.8381,4.8399,4.8425,4.8421,4.8445,4.845,4.8476,4.848,4.8517,4.8523,4.8528,4.8529,4.8529,4.8529,4.854,4.8537,4.8528,4.8527,4.8527,4.8527,0,4.8267,4.8278,4.832,4.8343,4.835,4.8377,4.8396,4.8419,4.8428,4.8461,4.8468,4.8481,4.8511,4.8518,4.8552,4.8556,4.86,4.8597,4.8594,4.8594,4.8622,4.862,4.8706,4.8719,4.8643,4.8643,4.8644,0,4.8303,4.8329,4.8356,4.8374,4.8387,4.8415,4.8433,4.8439,4.8458,4.8484,4.8504,4.8534,4.8558,4.8605,4.8617,4.8644,4.8642,4.8671,4.8646,4.8646,4.8645,4.8644,4.8647,4.8676,4.8677,4.8677,4.8678,0,4.8365,4.8369,4.8396,4.8425,4.8447,4.8469,4.8491,4.8505,4.8514,4.8535,4.8567,4.8585,4.8622,4.8651,4.8679,4.869,4.8686,4.8685,4.8693,4.8695,4.8693,4.8696,4.8609,4.8684,4.8683,4.8683,4.8682,4.8682,4.8409,4.8433,4.8456,4.8486,4.8503,4.8524,4.8547,4.8559,4.8586,4.8617,4.8618,4.8653,4.8673,4.871,4.8723,4.875,4.8741,4.8752,4.8755,4.8758,4.8762,4.8687,4.8754,4.8754,4.8754,4.8754,4.8754,0,4.8472,4.8487,4.8515,4.8547,4.857,4.8565,4.8589,4.8609,4.864,4.866,4.8684,4.8721,4.8749,4.8764,4.8793,4.8811,4.881,4.8819,4.8818,4.8822,4.8767,4.8758,4.882,4.882,4.882,4.882,4.8819,4.8819,4.8508,4.8549,4.8556,4.8605,4.8619,4.8654,4.8669,4.8688,4.8704,4.8746,4.877,4.878,4.8798,4.8828,4.8855,4.8858,4.887,4.888,4.8883,4.8832,4.8825,4.8819,4.881,4.8882,4.8882,4.8935,4.8936,4.8936]}]]